Weather History for KHRO - August, 2012

Change the Weather History Date:

Tuesday, August 28, 2012

  Actual Average Record
Temperature  
Mean Temperature 77 °F 76 °F  
Max Temperature 92 °F 87 °F 104 °F (1938)
Min Temperature 62 °F 64 °F 42 °F (1906)
Degree Days  
Heating Degree Days 0 0  
Month to date heating degree days 0 0  
Since 1 June heating degree days 5 6  
Since 1 July heating degree days 0 0  
Cooling Degree Days 12 11  
Month to date cooling degree days 379 365  
Year to date cooling degree days 1687 1183  
Since 1 June cooling degree days 1360 1044  
Growing Degree Days 27 (Base 50)    
Moisture  
Dew Point 58 °F    
Average Humidity 63    
Maximum Humidity 100    
Minimum Humidity 25    
Precipitation  
Precipitation 0.00 in 0.12 in 2.00 in (1979)
Month to date precipitation 2.53 3.24  
Year to date precipitation 20.19 28.62  
Snow  
Snow 0.00 in 0.00 in - ()
Month to date snowfall 0.0 0.0  
Since 1 June snowfall 0.0 0.0  
Since 1 July snowfall 0.0 0.0  
Snow Depth 0.00 in    
Sea Level Pressure  
Sea Level Pressure 30.03 in    
Wind  
Wind Speed 7 mph (NE)    
Max Wind Speed 20 mph    
Max Gust Speed 26 mph    
Visibility 10 miles    
Events      
T = Trace of Precipitation, MM = Missing Value Source: NWS Daily Summary

Daily Weather History Graph

Daily Weather History Graph

Search for Another Location

Airport or City:

Trip Planner

Search our weather history database for the weather conditions in past years. The results will help you decide how hot, cold, wet, or windy it might be!

Date:

Astronomy

Aug. 28, 2012 Rise Set
Actual Time 6:41 AM CDT 7:45 PM CDT
Civil Twilight 6:14 AM CDT 8:11 PM CDT
Nautical Twilight 5:43 AM CDT 8:43 PM CDT
Astronomical Twilight 5:10 AM CDT 9:15 PM CDT
Moon 5:45 PM CDT (8/28) 3:35 AM CDT (8/28)
Length of Visible Light 13h 56m
Length of Day
13h 03m
Waxing Gibbous, 90% of the Moon is Illuminated
Aug 28
Waxing Gibbous
Aug 31
Full
Sep 8
Last Quarter
Sep 15
New
Sep 22
First Quarter

Hourly Weather History & Observations

Time (CDT) Temp. Heat Index Dew Point Humidity Pressure Visibility Wind Dir Wind Speed Gust Speed Precip Events Conditions
12:53 AM 71.1 °F - 64.9 °F 81% 30.06 in 10.0 mi North 4.6 mph - N/A   Clear
1:53 AM 70.0 °F - 64.9 °F 84% 30.05 in 10.0 mi North 3.5 mph - N/A   Clear
2:53 AM 66.0 °F - 64.0 °F 93% 30.05 in 10.0 mi Calm Calm - N/A   Clear
3:53 AM 66.0 °F - 64.0 °F 93% 30.05 in 10.0 mi Calm Calm - N/A   Clear
4:53 AM 63.0 °F - 62.1 °F 97% 30.05 in 10.0 mi Calm Calm - N/A   Clear
5:53 AM 63.0 °F - 62.1 °F 97% 30.06 in 10.0 mi NNW 3.5 mph - N/A   Clear
6:53 AM 64.0 °F - 63.0 °F 96% 30.08 in 10.0 mi NNW 3.5 mph - N/A   Clear
7:53 AM 68.0 °F - 64.0 °F 87% 30.09 in 10.0 mi Calm Calm - N/A   Clear
8:53 AM 75.0 °F - 63.0 °F 66% 30.09 in 10.0 mi NE 5.8 mph - N/A   Clear
9:53 AM 80.1 °F 80.7 °F 59.0 °F 48% 30.10 in 10.0 mi East 10.4 mph - N/A   Clear
10:53 AM 82.9 °F 82.6 °F 57.9 °F 42% 30.10 in 10.0 mi East 11.5 mph - N/A   Clear
11:53 AM 84.0 °F 83.3 °F 57.0 °F 40% 30.09 in 10.0 mi East 10.4 mph - N/A   Clear
12:53 PM 88.0 °F 85.7 °F 53.1 °F 30% 30.06 in 10.0 mi East 16.1 mph 25.3 mph N/A   Clear
1:53 PM 89.1 °F 86.7 °F 53.1 °F 29% 30.04 in 10.0 mi ENE 12.7 mph 21.9 mph N/A   Clear
2:53 PM 90.0 °F 87.5 °F 53.1 °F 28% 30.02 in 10.0 mi ENE 12.7 mph 17.3 mph N/A   Clear
3:53 PM 91.0 °F - 50.0 °F 24% 29.99 in 10.0 mi NNE 11.5 mph - N/A   Clear
4:53 PM 90.0 °F - 50.0 °F 25% 29.98 in 10.0 mi ENE 11.5 mph 17.3 mph N/A   Clear
5:53 PM 89.1 °F - 51.1 °F 27% 29.98 in 10.0 mi NE 12.7 mph 19.6 mph N/A   Clear
6:53 PM 86.0 °F 84.2 °F 54.0 °F 33% 29.97 in 10.0 mi NE 9.2 mph - N/A   Clear
7:53 PM 80.1 °F 79.9 °F 53.1 °F 39% 29.97 in 10.0 mi NE 6.9 mph - N/A   Clear
8:53 PM 79.0 °F - 54.0 °F 42% 29.97 in 10.0 mi NNE 5.8 mph - N/A   Clear
9:53 PM 77.0 °F - 54.0 °F 45% 29.97 in 10.0 mi NNE 8.1 mph - N/A   Clear
10:53 PM 75.0 °F - 55.0 °F 50% 29.98 in 10.0 mi ENE 4.6 mph - N/A   Clear
11:53 PM 71.1 °F - 55.0 °F 57% 29.99 in 10.0 mi Calm Calm - N/A   Clear